Regional Weather Roundup
Issued by NWS

Home | Current Version | Previous Version | Text Only | Print | Product List | Glossary Off
Versions: 1 2 3 4 5 6 7 8 9 10 11 12 13 14 15 16 17 18 19 20 21 22 23 24 25 26 27 28 29 30 31 32 33 34 35 36 37 38 39 40 41 42 43 44 45 46 47 48 49 50

000
ASUS43 KIND 080509
RWRIN

WEATHER ROUNDUP FOR INDIANA
NATIONAL WEATHER SERVICE INDIANAPOLIS IN
1200 AM EST THU DEC 08 2016

NOTE: "FAIR" INDICATES FEW OR NO CLOUDS BELOW 12,000 FEET WITH NO
SIGNIFICANT WEATHER AND/OR OBSTRUCTIONS TO VISIBILITY.

* - STATION DOES NOT REPORT WEATHER SUCH AS PRECIPITATION OR FOG.

+ - STATION NOT QUALITY CONTROLLED BY THE NATIONAL WEATHER SERVICE.
    USE DATA WITH CAUTION...ESPECIALLY DEWPOINT AND RELATIVE
    HUMIDITY OBSERVATIONS.

INZ001>003-010>013-019-020-080600-
NORTHWEST INDIANA

CITY           SKY/WX    TMP DP  RH WIND       PRES   REMARKS
KNOX *+        CLOUDY    25   1  36 W17G23    30.16S WCI  11
LA PORTE +     CLOUDY    23  16  75 W15G21    30.15R WCI  10
MICHIGAN CITY+ CLOUDY    27  19  74 W14G21    30.15S WCI  15
MONTICELLO +   CLOUDY    25  14  64 W13G24    30.19R WCI  13
RENSSELAER +     N/A     27  21  80 W16G22    30.19R WCI  14
VALPARAISO     CLOUDY    24  15  68 W20G28    30.17R WCI  10

$$

LMZ046-743>745-080600-
SOUTHERN LAKE MICHIGAN

STATION/POSITION TIME  TEMP    WIND        PRES    WAVE
                       AIR SEA DIR/SP/G            HT
                 (UTC) (F)     (DEG/KT/KT) (MB)    (FT)
MICHIGAN CITY    0440   25     240/ 25/ 31   N/A

$$

INZ004-005-014>016-021>024-080600-
NORTH CENTRAL INDIANA

CITY           SKY/WX    TMP DP  RH WIND       PRES   REMARKS
GOSHEN         CLOUDY    26  16  65 W15       30.12R WCI  14
LOGANSPORT +   MOCLDY    25  19  80 W15       30.18S WCI  12
PERU/GRISSOM   MOCLDY    25  18  73 W20       30.14S WCI  11
ROCHESTER +    MOCLDY    28  21  74 W12G30    30.15S WCI  18
SOUTH BEND     CLOUDY    25  18  74 W14       30.12R WCI  13
WARSAW +       CLOUDY    27  18  69 W16G22    30.13R WCI  14

$$

INZ006>009-017-018-025>027-080600-
NORTHEAST INDIANA

CITY           SKY/WX    TMP DP  RH WIND       PRES   REMARKS
ANGOLA *+      CLOUDY    27  19  74 W12       30.07R WCI  16
AUBURN +       MOCLDY    28  19  69 W16G25    30.11S WCI  17
FORT WAYNE     MOCLDY    27  19  72 W15       30.13R WCI  15
HUNTINGTON +   CLOUDY    26  19  75 W12       30.14R WCI  16
KENDALLVILLE + CLOUDY    26  19  74 W15G23    30.09S WCI  14

$$

INZ028-029-035-036-043>045-051>053-080600-
WEST CENTRAL INDIANA

CITY           SKY/WX    TMP DP  RH WIND       PRES   REMARKS
CRAWFORDSVL +  PTCLDY    25  20  82 W9        30.21S WCI  16
GREENCASTLE +  CLEAR     28  25  86 W3        30.22R
LAFAYETTE      PTCLDY    25  17  72 W13G23    30.21R WCI  14
TERRE HAUTE    PTCLDY    29  19  66 NW13      30.25R WCI  19

$$

INZ030>032-037>040-046>048-054>057-064-065-080600-
CENTRAL INDIANA

CITY           SKY/WX    TMP DP  RH WIND       PRES   REMARKS
CP ATTERBURY + PTCLDY    32  23  69 W8        30.21R WCI  25
FRANKFORT +    PTCLDY    28  20  71 NW20G26   30.21R WCI  15
GREENWOOD *+   PTCLDY    30  23  75 W9        30.20R WCI  21
INDIANAPOLIS   PTCLDY    27  21  78 W9        30.19R WCI  18
-EAGLE CREEK   CLEAR     29  21  72 W10       30.19R WCI  20
KOKOMO +       PTCLDY    26  18  71 W22G28    30.17R WCI  12
MARION +       PTCLDY    27  21  77 W20G26    30.17R WCI  13
MT COMFORT *+  CLEAR     27  21  80 W14       30.19R WCI  15
SHELBYVILLE    MOCLDY    30  21  69 W9        30.19R WCI  22
ZIONSVILLE +   CLEAR     26  20  77 W12G18    30.20R WCI  16

$$

INZ033-034-041-042-049-050-058-059-080600-
EAST CENTRAL INDIANA

CITY           SKY/WX    TMP DP  RH WIND       PRES   REMARKS
MUNCIE         MOCLDY    29  22  75 W13       30.16R WCI  19

$$

INZ060-061-067>069-081>083-085>088-080600-
SOUTHWEST INDIANA

CITY           SKY/WX    TMP DP  RH WIND       PRES   REMARKS
EVANSVILLE     CLOUDY    35  21  56 NW7       30.29R WCI  29
HUNTINGBURG *+ CLOUDY    33  23  66 NW7       30.26R WCI  27
WASHINGTON +   CLOUDY    32  26  78 NW8       30.26R WCI  25

$$

INZ062-063-066-070>080-084-089>092-080600-
SOUTH CENTRAL AND SOUTHEAST INDIANA

CITY           SKY/WX    TMP DP  RH WIND       PRES   REMARKS
BLOOMINGTON    CLOUDY    31  20  63 NW8       30.21R WCI  23
MADISON *+     CLOUDY    34  23  64 W6        30.21S WCI  29
NORTH VERNON + CLOUDY    32  28  86 W10G17    30.21R WCI  24
SEYMOUR +      PTCLDY    32  23  69 NW7       30.22R WCI  26

$$





USA.gov is the U.S. government's official web portal to all federal, state and local government web resources and services.